EHI
7 9 11 11 12 13 12 10 9 8 7 5 5 4 2 1 2 2 1 0 0 1 1 1 0 0 1 0 1 2 1 1 2 3 4 3 2 1 2 2 2 1 0
10 12 14 14 15 16 15 13 10 8 7 5 5 6 4 2 2 2 1 0 0 1 2 2 1 1 1 1 1 2 1 1 2 3 3 3 3 2 2 3 3 1 0
15 16 18 18 17 18 16 13 12 10 7 5 5 5 4 3 2 2 2 1 1 1 2 2 2 1 2 2 2 3 2 1 2 2 2 3 4 4 4 4 4 1 0
18 20 21 21 20 17 13 12 13 12 9 7 5 5 4 2 1 2 3 3 1 1 1 3 3 2 1 1 2 3 3 3 3 3 3 3 3 3 4 4 3 1 0
18 19 19 20 20 17 11 12 15 14 12 10 9 7 5 2 1 1 3 3 1 0 1 2 2 1 1 1 2 3 3 3 3 3 3 3 2 2 3 3 2 1 1
13 14 15 19 21 19 14 14 18 19 16 13 11 9 7 4 3 3 3 3 2 0 0 0 0 1 2 3 3 3 3 3 3 3 3 3 2 2 2 2 1 1 2
10 10 15 20 23 21 18 20 24 25 21 16 13 13 11 8 6 5 3 4 3 1 1 1 1 3 5 5 5 4 3 4 4 3 2 2 3 3 3 2 0 1 2
9 8 11 18 22 23 22 25 29 29 25 18 15 16 15 10 8 6 5 5 5 4 3 2 3 6 7 7 6 5 5 6 6 4 2 2 2 3 3 2 1 0 1
7 5 6 11 18 22 22 24 26 26 23 18 15 14 14 12 10 9 7 5 5 4 4 4 5 7 8 9 9 7 6 7 7 4 2 2 2 2 2 2 1 0 0
6 5 5 8 13 18 21 21 21 19 16 15 14 13 12 12 12 11 9 5 4 4 4 5 7 8 8 10 11 9 7 6 5 3 3 3 3 3 3 3 2 1 1
6 6 8 9 11 16 19 20 19 16 13 12 13 13 12 13 13 11 8 7 6 5 6 7 8 8 8 10 11 9 7 5 4 3 3 3 4 6 6 5 3 3 3
7 9 12 14 16 17 18 18 18 16 14 13 13 13 13 14 14 12 10 11 11 10 10 10 10 9 8 9 9 8 6 5 3 3 3 4 6 8 8 7 5 5 6
12 13 15 17 20 20 18 16 15 14 14 13 13 14 15 15 14 12 13 14 15 14 13 12 12 11 10 9 8 7 6 4 4 3 3 4 6 8 8 7 6 6 6
19 18 16 17 19 20 19 18 15 13 13 13 13 14 15 15 13 12 14 16 16 14 13 12 12 13 12 11 9 8 6 5 5 4 3 3 5 6 6 6 6 7 7
19 19 18 17 18 19 20 21 19 16 15 16 14 14 15 14 12 12 14 16 15 12 11 11 12 12 12 10 9 8 7 7 8 6 4 3 4 4 4 4 5 6 6
16 16 17 18 18 19 20 23 23 22 21 20 18 16 15 13 12 12 14 15 14 12 11 11 11 11 10 8 6 7 8 9 10 8 5 3 3 3 2 2 2 2 3
14 15 18 19 18 17 19 22 24 24 24 23 21 18 16 13 11 11 12 13 13 14 14 13 12 12 10 6 3 3 6 9 12 11 7 5 4 3 3 2 1 1 1
14 15 17 18 18 17 19 21 22 23 25 26 24 21 18 14 12 11 12 13 14 16 16 15 14 13 10 5 1 1 3 8 11 11 9 6 4 4 4 4 4 3 3
16 16 16 16 18 18 19 20 19 21 24 27 27 25 23 20 16 15 15 14 14 16 16 15 14 13 9 5 1 1 4 7 10 11 8 5 4 3 3 5 6 5 5
17 15 14 16 19 19 20 19 18 19 22 25 27 28 28 25 19 16 15 13 13 13 13 12 12 11 9 5 2 2 4 8 11 12 9 5 3 2 2 4 6 6 6
15 14 14 17 20 21 20 20 20 19 21 24 25 27 27 24 19 14 12 10 11 10 9 9 8 8 7 5 2 2 4 8 13 14 12 8 3 1 1 2 4 5 5
13 13 14 17 19 20 20 21 21 20 20 22 23 23 24 21 17 12 9 8 8 8 8 7 7 7 7 5 3 1 2 6 11 13 11 7 2 0 0 0 1 2 2
14 13 14 16 17 18 18 19 21 22 22 22 23 22 21 20 15 10 8 7 7 7 8 7 6 7 7 6 4 2 1 2 6 9 7 4 1 0 0 0 0 0 1
15 14 14 16 17 17 16 18 20 22 22 22 23 22 21 19 15 11 7 6 6 6 6 6 6 6 6 5 5 5 3 2 3 5 5 4 2 1 1 0 0 0 1
14 13 14 16 18 17 17 18 21 22 21 19 18 19 18 17 14 10 7 5 5 4 4 4 4 4 4 4 4 5 5 3 3 5 7 7 5 4 2 1 1 0 1
13 12 13 16 18 17 16 18 20 22 19 15 13 14 15 15 13 9 5 4 4 3 2 3 3 3 3 3 4 4 4 3 3 5 7 9 8 6 3 2 2 1 0
Wind_Speed
6 6 6 6 6 6 5 5 4 4 3 2 3 2 2 2 2 2 2 2 2 2 3 3 2 2 2 2 2 2 2 2 2 2 2 2 3 3 3 3 3 3 3
6 7 6 6 6 6 6 5 5 4 4 3 2 2 2 2 2 2 2 3 2 3 3 2 3 2 2 2 2 2 2 2 2 2 2 2 3 3 3 3 3 3 3
7 7 7 7 6 6 6 5 5 5 4 4 3 2 2 3 3 3 2 2 3 3 3 3 3 3 3 2 3 3 4 3 2 2 3 3 1 1 2 3 2 2 2
7 7 7 7 7 6 6 6 5 5 5 5 3 4 3 3 2 2 2 2 3 3 3 3 3 4 3 3 4 3 3 4 3 2 3 3 3 3 2 2 2 3 3
7 7 6 6 6 6 6 6 5 5 5 4 4 4 4 3 2 2 2 3 3 3 3 3 3 4 4 3 4 3 4 4 4 3 2 3 3 4 4 3 2 2 2
6 6 6 5 5 5 5 6 5 5 5 5 4 5 4 4 3 3 3 4 3 3 3 3 3 4 3 3 3 4 4 4 4 4 3 3 3 3 3 3 4 3 2
6 6 6 6 5 5 5 5 5 5 5 5 5 5 5 5 5 5 4 4 3 2 2 3 3 3 3 4 4 4 4 4 4 4 4 3 4 3 3 3 3 4 3
4 6 6 6 6 6 5 5 5 5 5 5 5 4 5 4 4 4 4 4 3 2 2 3 3 4 4 4 3 4 4 3 4 4 4 4 4 3 3 3 3 4 3
3 4 5 6 6 6 5 5 4 4 4 4 4 4 4 4 4 4 4 3 3 2 3 3 3 4 4 4 4 3 4 3 4 4 4 4 3 3 3 3 4 4 4
3 3 4 4 5 5 5 5 4 4 3 3 3 3 4 4 4 3 3 3 3 2 2 3 3 3 3 3 4 3 3 3 3 3 3 4 3 2 3 3 4 4 4
2 3 3 3 4 4 5 5 4 4 3 3 3 3 3 4 4 3 3 3 3 3 3 3 3 3 2 2 3 3 3 3 3 4 4 4 4 4 3 3 3 3 3
2 2 2 3 3 4 4 5 4 4 3 3 3 3 3 3 4 3 3 3 3 3 3 3 3 3 3 2 3 3 3 3 3 3 4 4 3 4 4 3 3 2 3
2 2 2 2 2 2 3 4 4 4 4 3 3 3 3 3 3 3 3 3 3 3 3 3 3 3 3 3 3 3 3 3 3 3 4 4 4 4 3 3 3 3 3
1 1 1 1 1 2 2 3 3 3 4 4 4 3 3 3 3 3 3 3 3 3 3 3 3 4 4 3 3 3 3 3 3 4 4 4 4 4 4 3 3 3 3
1 1 1 0 1 2 2 2 2 3 3 4 4 3 3 2 2 2 2 3 3 3 3 3 3 4 4 2 3 4 4 4 3 3 3 3 3 3 3 3 3 3 4
2 1 1 1 1 2 2 2 3 3 3 4 3 2 2 2 2 2 2 2 2 3 3 3 3 4 3 1 2 5 4 4 4 3 3 3 4 2 2 3 4 5 5
2 2 1 1 1 2 2 3 3 3 3 3 3 3 2 2 2 2 2 2 3 3 3 3 3 4 2 1 2 4 5 4 4 3 3 3 2 3 3 4 5 5 6
2 2 2 1 1 1 1 2 2 3 3 3 3 2 2 2 3 3 2 3 3 3 3 3 3 3 2 2 3 4 6 5 4 4 4 3 2 2 3 3 3 4 5
2 1 1 1 1 1 1 2 2 3 3 3 3 3 3 3 3 3 2 2 3 3 3 3 3 3 2 2 3 5 5 4 4 4 3 3 3 1 2 4 4 4 4
1 1 1 0 1 1 2 2 2 2 2 2 3 3 3 3 3 3 2 2 2 3 3 2 3 3 2 2 3 5 4 4 4 4 4 3 2 1 2 4 4 4 4
1 1 1 1 1 1 2 2 2 2 1 1 2 2 3 3 3 3 2 2 2 2 2 2 2 2 2 2 2 4 4 4 4 3 3 2 4 2 3 4 5 4 4
2 1 1 1 1 2 2 2 2 2 1 2 2 2 3 3 2 2 2 2 3 3 3 3 3 2 2 2 2 3 4 5 3 3 2 1 3 3 3 4 3 2 3
2 2 2 2 2 2 2 2 2 1 2 2 2 2 2 2 1 2 2 2 3 3 3 3 3 2 1 2 3 3 4 4 4 2 1 0 2 3 4 4 4 4 4
3 3 3 3 3 2 2 2 2 2 2 2 2 2 2 2 2 2 2 2 2 2 2 3 3 2 2 1 1 2 2 3 3 2 2 4 5 4 2 2 4 4 3
4 4 3 3 3 3 3 3 2 3 3 3 3 3 3 2 2 2 1 2 1 1 3 3 3 2 2 1 2 2 3 2 2 2 2 1 1 2 2 2 2 2 2
4 4 4 4 4 4 3 3 3 3 4 4 4 3 3 2 2 2 1 1 2 2 3 3 4 2 1 2 1 2 3 3 3 3 2 2 2 2 2 2 2 2 2
Wind_Direction
178 176 181 178 176 175 175 181 188 177 184 185 197 197 199 209 205 199 192 221 249 259 269 287 267 271 275 283 271 261 248 255 247 239 236 233 223 215 213 221 236 230 228
178 178 184 182 182 177 179 182 187 185 195 190 207 213 216 222 215 232 200 235 246 257 251 264 267 269 265 257 261 260 269 265 252 266 255 228 205 203 211 211 220 241 239
189 183 187 190 188 185 187 188 189 186 196 199 203 193 197 224 214 214 211 233 246 254 272 267 272 277 267 257 262 260 257 262 258 261 275 273 261 237 196 211 215 225 240
195 190 191 193 194 190 185 186 185 186 191 200 211 210 217 231 239 243 228 220 230 247 252 256 263 269 272 270 263 265 269 265 263 240 249 272 296 278 238 216 214 218 231
195 190 191 189 192 188 183 181 181 186 187 198 202 219 229 237 238 240 229 245 235 246 254 254 258 260 263 265 276 284 276 267 274 275 261 254 240 248 256 253 248 242 232
189 187 183 175 179 179 181 178 177 187 188 195 203 216 229 242 251 244 239 236 233 235 242 254 263 263 268 263 260 263 258 269 279 280 274 262 257 243 247 254 253 254 251
182 179 175 171 174 179 182 179 177 188 194 199 208 214 226 232 235 242 234 249 248 238 239 259 257 265 264 264 263 259 272 263 264 268 275 271 266 264 258 257 262 262 247
167 172 175 175 180 184 183 179 177 187 197 206 215 221 227 234 236 236 251 242 254 258 260 256 254 259 262 263 258 258 258 264 267 271 274 270 263 256 253 255 263 261 244
151 169 173 178 182 185 186 184 179 187 201 211 212 217 227 241 245 237 240 246 251 248 243 251 256 262 263 263 259 261 266 265 261 258 251 261 259 248 247 246 251 263 261
145 157 169 175 181 182 178 177 177 185 195 207 219 203 216 225 236 244 246 258 261 268 264 261 260 261 260 258 259 255 257 263 265 266 262 264 262 257 251 254 254 259 268
140 142 149 166 181 177 171 173 176 183 187 198 216 222 213 218 220 228 238 241 248 252 254 255 258 260 264 264 265 268 260 260 265 268 258 258 271 264 252 247 246 246 253
130 121 128 153 169 172 172 174 182 190 196 194 197 212 219 219 223 223 230 231 236 243 243 247 249 257 261 260 260 263 265 265 266 271 276 271 262 260 263 256 248 246 244
134 122 127 144 161 171 179 187 190 195 198 196 199 206 217 221 232 236 235 228 231 242 242 238 247 257 262 255 257 260 265 266 263 262 263 268 269 264 263 259 247 237 233
162 161 134 131 160 180 192 209 208 199 199 197 200 206 221 226 233 237 238 235 233 239 244 243 245 250 252 250 255 257 260 260 264 261 258 263 263 256 251 243 238 236 236
204 216 244 169 193 192 200 215 218 207 203 200 201 208 221 227 232 232 233 233 230 232 236 244 247 249 246 252 270 266 254 251 256 257 253 249 259 283 265 262 241 233 233
232 243 266 259 219 198 204 212 215 205 204 206 203 194 212 232 237 239 237 240 244 244 238 240 249 254 258 15 293 277 268 253 251 253 251 241 224 225 236 257 263 257 244
241 248 251 253 259 229 208 217 213 207 200 198 195 186 193 232 240 239 239 247 247 243 245 249 251 253 254 211 259 269 264 252 251 251 249 252 219 207 229 221 227 241 250
244 249 248 254 254 264 206 201 194 195 193 186 189 199 198 233 246 235 232 245 249 254 253 254 256 253 236 200 241 265 249 251 247 243 241 242 241 227 235 232 231 232 228
245 252 255 263 268 270 210 182 193 194 194 191 195 201 205 222 239 237 229 244 250 253 252 244 247 253 241 215 243 261 249 241 244 239 233 233 233 193 231 230 234 239 232
231 232 249 267 213 226 202 195 199 206 213 209 208 205 203 217 230 234 233 237 244 249 258 256 257 253 252 209 228 253 252 244 238 226 220 197 219 177 201 227 233 236 237
211 238 253 261 238 213 202 207 212 226 245 225 203 190 199 207 212 220 229 239 249 257 257 256 251 247 251 204 213 248 259 259 244 230 219 184 158 196 220 240 246 253 253
202 227 259 279 254 216 205 210 220 236 231 209 198 195 213 223 195 199 221 236 249 244 241 245 250 230 221 230 222 234 252 280 260 247 239 148 147 202 225 233 254 245 245
217 222 233 246 234 216 211 226 234 237 226 219 212 209 215 215 210 216 224 222 223 246 252 250 258 256 238 186 190 211 226 242 255 263 22 41 172 214 213 214 223 215 225
221 221 226 227 223 220 226 235 224 222 215 219 226 215 212 205 201 238 240 250 249 257 262 266 272 279 275 280 232 235 226 213 223 248 193 185 191 212 226 197 204 225 232
222 225 233 234 227 229 233 232 221 220 225 225 230 233 224 212 220 227 258 255 271 290 270 279 284 286 281 332 325 267 271 276 273 259 240 232 209 216 220 212 210 223 212
224 226 230 234 223 223 229 229 223 225 227 226 230 237 231 221 228 219 214 165 237 189 214 255 282 297 323 338 285 255 258 248 243 242 233 225 225 236 236 225 213 214 217